Le nostre stazioni meteo in Italia

Pubblicità
Il mio iltempo24.it
Threave, Gran Bretagna (99090): Temperatura & dewpoint: 02.12.2019 13:00:00 - 08.12.2019 13:00:00 (GMT)Threave, Gran Bretagna (99090): Temperatura -20cm & Temperatura -100cm: 02.12.2019 13:00:00 - 08.12.2019 13:00:00 (GMT)Threave, Gran Bretagna (99090): precipitazioni: 02.12.2019 13:00:00 - 08.12.2019 13:00:00 (GMT)
Data & Tempo tt [°C] td [°C] tt -20cm [°C] tt -100cm [°C] rr [mm]
08.12.2019 13:00:00 6,9 2,9 - - 0,0
08.12.2019 12:00:00 7,0 2,8 - - 0,0
08.12.2019 11:00:00 6,7 2,7 - - 0,0
08.12.2019 10:00:00 6,5 3,1 - - 0,0
08.12.2019 09:00:00 6,6 2,9 6,7 7,2 0,0
08.12.2019 08:00:00 6,8 3,5 - - 0,0
08.12.2019 07:00:00 6,7 3,2 - - 0,0
08.12.2019 06:00:00 7,3 4,0 - - 0,0
08.12.2019 05:00:00 7,0 3,5 - - 0,0
08.12.2019 04:00:00 8,0 4,7 - - 0,0
08.12.2019 03:00:00 8,8 6,6 - - 0,6
08.12.2019 02:00:00 9,3 6,9 - - 0,2
08.12.2019 01:00:00 10,3 8,9 - - 0,6
08.12.2019 00:00:00 10,6 10,2 - - 1,6
07.12.2019 23:00:00 9,8 9,2 - - 4,4
07.12.2019 22:00:00 9,5 9,0 - - 5,6
07.12.2019 21:00:00 9,5 8,9 - - 1,8
07.12.2019 20:00:00 9,5 8,8 - - 0,0
07.12.2019 19:00:00 9,5 8,8 - - 0,0
07.12.2019 18:00:00 9,8 9,1 - - 0,2
07.12.2019 17:00:00 10,0 9,2 - - 0,4
07.12.2019 16:00:00 9,5 8,9 - - 1,2
07.12.2019 15:00:00 9,1 8,6 - - 0,4
07.12.2019 14:00:00 8,9 8,3 - - 1,6
07.12.2019 13:00:00 8,7 8,3 - - 1,0
07.12.2019 12:00:00 8,8 7,9 - - 0,0
07.12.2019 11:00:00 8,5 7,3 - - 0,0
07.12.2019 10:00:00 7,9 6,5 - - 0,0
07.12.2019 09:00:00 7,8 6,5 6,0 7,0 0,0
07.12.2019 08:00:00 7,6 6,6 - - 0,0
07.12.2019 07:00:00 7,9 6,6 - - 0,0
07.12.2019 06:00:00 7,8 6,5 - - 0,0
07.12.2019 05:00:00 7,4 6,2 - - 0,0
07.12.2019 04:00:00 7,8 7,1 - - 0,2
07.12.2019 03:00:00 8,0 7,4 - - 0,4
07.12.2019 02:00:00 7,9 7,2 - - 0,0
07.12.2019 01:00:00 7,9 7,2 - - 0,2
07.12.2019 00:00:00 8,0 7,3 - - 0,0
06.12.2019 23:00:00 7,8 6,9 - - 0,2
06.12.2019 22:00:00 8,0 6,2 - - 0,0
06.12.2019 21:00:00 8,4 7,0 - - 0,0
06.12.2019 20:00:00 8,2 6,8 - - 0,0
06.12.2019 19:00:00 8,3 7,2 - - 0,4
06.12.2019 18:00:00 8,4 7,0 - - 0,2
06.12.2019 17:00:00 8,2 6,6 - - 0,0
06.12.2019 16:00:00 7,9 6,3 - - 0,0
06.12.2019 15:00:00 8,8 6,8 - - 0,2
06.12.2019 14:00:00 8,9 7,4 - - 0,0
06.12.2019 13:00:00 8,9 7,4 - - 0,0
06.12.2019 12:00:00 9,0 8,1 - - 0,2
06.12.2019 11:00:00 9,1 8,2 - - 0,2
06.12.2019 10:00:00 9,7 7,9 - - 0,0
06.12.2019 09:00:00 10,2 8,9 5,5 6,7 0,0
06.12.2019 08:00:00 10,5 10,0 - - 0,2
06.12.2019 07:00:00 10,6 10,3 - - 0,6
06.12.2019 06:00:00 10,6 10,3 - - 0,0
06.12.2019 05:00:00 10,7 10,3 - - 1,0
06.12.2019 04:00:00 10,7 10,3 - - 0,2
06.12.2019 03:00:00 10,7 10,2 - - 0,0
06.12.2019 02:00:00 10,7 10,1 - - 0,0
06.12.2019 01:00:00 10,8 10,1 - - 0,0
06.12.2019 00:00:00 11,0 10,1 - - 0,0
05.12.2019 23:00:00 11,2 10,3 - - 0,0
05.12.2019 22:00:00 11,3 10,5 - - 0,0
05.12.2019 21:00:00 10,9 10,3 - - 0,2
05.12.2019 20:00:00 11,0 10,3 - - 0,2
05.12.2019 19:00:00 11,0 10,4 - - 1,2
05.12.2019 18:00:00 10,6 10,1 - - 1,4
05.12.2019 17:00:00 10,5 9,6 - - 0,0
05.12.2019 16:00:00 10,0 9,2 - - 0,4
05.12.2019 15:00:00 9,3 8,9 - - 3,8
05.12.2019 14:00:00 8,7 8,2 - - 3,4
05.12.2019 13:00:00 7,8 7,2 - - 2,6
05.12.2019 12:00:00 7,5 6,3 - - 1,4
05.12.2019 11:00:00 8,1 6,1 - - 0,0
05.12.2019 10:00:00 8,2 5,7 - - 0,0
05.12.2019 09:00:00 7,8 5,6 4,2 6,7 0,0
05.12.2019 08:00:00 7,5 5,2 - - 0,0
05.12.2019 07:00:00 7,5 5,2 - - 0,0
05.12.2019 06:00:00 7,2 4,9 - - 0,0
05.12.2019 05:00:00 6,5 4,1 - - 0,0
05.12.2019 04:00:00 6,6 4,1 - - 0,0
05.12.2019 03:00:00 6,4 4,0 - - 0,0
05.12.2019 02:00:00 5,9 3,8 - - 0,0
05.12.2019 01:00:00 5,9 4,1 - - 0,0
05.12.2019 00:00:00 5,7 3,9 - - 0,0
04.12.2019 23:00:00 5,9 4,2 - - 0,2
04.12.2019 22:00:00 5,3 3,7 - - 0,0
04.12.2019 21:00:00 5,1 3,6 - - 0,0
04.12.2019 20:00:00 5,4 4,0 - - 0,0
04.12.2019 19:00:00 5,0 3,8 - - 0,0
04.12.2019 18:00:00 5,0 3,9 - - 0,0
04.12.2019 17:00:00 5,5 4,1 - - 0,0
04.12.2019 16:00:00 7,7 6,2 - - 0,0
04.12.2019 15:00:00 8,6 6,9 - - 0,0
04.12.2019 14:00:00 8,7 7,0 - - 0,2
04.12.2019 13:00:00 8,4 7,3 - - 0,0
04.12.2019 12:00:00 8,0 7,1 - - 0,8
04.12.2019 11:00:00 8,1 6,8 - - 0,4
04.12.2019 10:00:00 8,9 5,9 - - 0,0
04.12.2019 09:00:00 8,9 5,3 3,7 6,9 0,0
04.12.2019 08:00:00 8,4 5,2 - - 0,0
04.12.2019 07:00:00 8,6 5,2 - - 0,0
04.12.2019 06:00:00 8,6 5,2 - - 0,0
04.12.2019 05:00:00 8,4 5,0 - - 0,0
04.12.2019 04:00:00 8,4 4,9 - - 0,0
04.12.2019 03:00:00 8,4 5,0 - - 0,0
04.12.2019 02:00:00 8,3 5,5 - - 0,0
04.12.2019 01:00:00 8,3 5,6 - - 0,0
04.12.2019 00:00:00 8,4 6,0 - - 0,0
03.12.2019 23:00:00 8,3 5,8 - - 0,0
03.12.2019 22:00:00 8,2 5,6 - - 0,0
03.12.2019 21:00:00 8,2 5,4 - - 0,0
03.12.2019 20:00:00 7,2 5,3 - - 0,0
03.12.2019 19:00:00 6,5 4,5 - - 0,0
03.12.2019 18:00:00 6,0 4,4 - - 0,0
03.12.2019 17:00:00 5,4 3,5 - - 0,0
03.12.2019 16:00:00 7,2 4,5 - - 0,0
03.12.2019 15:00:00 7,1 4,3 - - 0,0
03.12.2019 14:00:00 7,2 4,5 - - 0,0
03.12.2019 13:00:00 6,6 4,0 - - 0,0
03.12.2019 12:00:00 6,2 3,5 - - 0,0
03.12.2019 11:00:00 5,9 2,8 - - 0,0
03.12.2019 10:00:00 5,6 3,3 - - 0,0
03.12.2019 09:00:00 5,1 3,1 2,9 7,0 0,0
03.12.2019 08:00:00 5,0 2,7 - - 0,0
03.12.2019 07:00:00 5,0 2,4 - - 0,0
03.12.2019 06:00:00 5,1 3,0 - - 0,0
03.12.2019 05:00:00 5,0 3,4 - - 0,0
03.12.2019 04:00:00 5,3 3,8 - - 0,0
03.12.2019 03:00:00 5,9 4,2 - - 0,0
03.12.2019 02:00:00 6,1 4,5 - - 0,0
03.12.2019 01:00:00 6,0 4,6 - - 0,0
03.12.2019 00:00:00 6,0 4,6 - - 0,0
02.12.2019 23:00:00 6,0 4,6 - - 0,0
02.12.2019 22:00:00 6,2 4,4 - - 0,0
02.12.2019 21:00:00 6,4 4,4 - - 0,0
02.12.2019 20:00:00 6,3 4,5 - - 0,0
02.12.2019 19:00:00 6,3 4,6 - - 0,0
02.12.2019 18:00:00 6,0 4,6 - - 0,0
02.12.2019 17:00:00 6,1 4,7 - - 0,2
02.12.2019 16:00:00 5,7 4,7 - - 0,0
02.12.2019 15:00:00 5,9 5,1 - - 0,0
02.12.2019 14:00:00 5,6 4,9 - - 0,0
02.12.2019 13:00:00 5,4 5,1 - - 0,0

tt = Temperatura
td = dewpoint
tt -20cm = Temperatura -20cm
tt -100cm = Temperatura -100cm
rr = precipitazioni

Stazioni seguenti

WeatherPro
AMSI
MeteoEarth